This demonstration page uses our WeatherBlox Daily Observations layout. Learn more.

36.17497, -115.13722

Hourly Observations for July 29, 2016

Temp ( °F °C ) Dew Point ( °F °C ) Humidity (%) Winds ( mph kmh ) Pressure ( in mb ) Visibility ( mi km ) Precip ( " mm )
12:53 am 00:53 Clear 98 36.7 48 8.9 18 18 NW 5 7 29.62 1003 10 16.09344 0 0
1:53 am 01:53 Clear 95 35 48 8.9 20 20 Calm 29.59 1002 10 16.09344 0 0
2:53 am 02:53 Clear 94 34.4 48 8.9 21 21 NNW 6 9 29.62 1003 10 16.09344 0 0
3:53 am 03:53 Clear 95 35 46 7.8 19 19 N 8 13 29.62 1003 10 16.09344 0 0
4:53 am 04:53 Clear 93 33.9 46 7.8 20 20 N 8 13 29.65 1004 10 16.09344 0 0
5:53 am 05:53 Sunny 92 33.3 46 7.8 21 21 NW 9 15 29.68 1005 10 16.09344 0 0
6:53 am 06:53 Sunny 94 34.4 46 7.8 19 19 NNW 6 9 29.68 1005 10 16.09344 0 0
7:53 am 07:53 Sunny 96 35.6 48 8.9 19 19 NE 3 6 29.65 1004 10 16.09344 0 0
8:53 am 08:53 Sunny 97 36.1 47 8.3 18 18 ESE 3 6 29.68 1005 10 16.09344 0 0
9:53 am 09:53 Mostly Sunny 98 36.7 50 10 20 20 NNE 3 6 29.68 1005 10 16.09344 0 0
10:53 am 10:53 Sunny 99 37.2 48 8.9 18 18 SSE 6 9 29.68 1005 10 16.09344 0 0
11:53 am 11:53 Sunny 101 38.3 48 8.9 17 17 SSE 6 9 29.65 1004 10 16.09344 0 0
12:53 pm 12:53 Sunny 107 41.7 47 8.3 13 13 E 8 13 29.59 1002 10 16.09344 0 0
1:53 pm 13:53 Sunny 106 41.1 46 7.8 13 13 SSE 6 9 29.56 1001 10 16.09344 0 0
2:53 pm 14:53 Sunny 106 41.1 48 8.9 14 14 NNW 9 15 29.53 1000 10 16.09344 0 0
3:53 pm 15:53 Sunny 108 42.2 43 6.1 11 11 Calm 29.5 999 10 16.09344 0 0
4:53 pm 16:53 Sunny 109 43 43 6 10 10 N 8 13 29.47 998 10 16.09344 0 0
5:53 pm 17:53 Sunny 109 42.8 41 5 10 10 NE 3 6 29.44 997 10 16.09344 0 0
6:53 pm 18:53 Sunny 108 42.2 43 6.1 11 11 ENE 6 9 29.44 997 10 16.09344 0 0
7:53 pm 19:53 Clear 106 41.1 46 7.8 13 13 NNW 6 9 29.5 999 10 16.09344 0 0
8:53 pm 20:53 Partly Cloudy with Light Rain 97 36.1 57 13.9 26 26 NNW 20 31 29.53 1000 10 16.09344 0.001 0.001
9:53 pm 21:53 Clear 100 37.8 47 8.3 16 16 N 15 24 29.59 1002 10 16.09344 0.001 0.001
10:53 pm 22:53 Clear 96 35.6 51 10.6 22 22 NNE 6 9 29.59 1002 10 16.09344 0.001 0.001
11:53 pm 23:53 Mostly Clear 97 36.1 49 9.4 20 20 S 6 9 29.59 1002 10 16.09344 0 0

Powered by AerisWeather